Simultaneous Nadir Overpasses (SNOs) Predictions

Prediction of SNOs between GOES-16 and LANDSAT-8 Satellite Orbit:

Table of predicted SNOs for the next 14.0 days since TLE Epoch: 3/20/2021
Index Date Time (GOES-16) GOES-16 Lat,Lon LANDSAT-8 Lat,Lon Distance(km) Time Diff (sec)
1 03/20/2021 14:56:47 0.04, -75.22 -0.86, -70.93 487.25 80
2 03/21/2021 03:18:10 -0.04, -75.20 -0.26, -76.12 105.54 80
3 03/23/2021 03:03:20 -0.04, -75.19 0.40, -73.17 230.20 80
4 03/23/2021 15:24:34 0.04, -75.21 0.72, -78.32 354.14 80
5 03/25/2021 15:12:23 0.03, -75.22 0.05, -75.38 17.89 80
6 03/27/2021 15:02:51 0.03, -75.23 -0.56, -72.42 319.24 80
7 03/28/2021 03:24:15 -0.03, -75.22 -0.55, -77.61 272.67 80
8 03/30/2021 03:09:23 -0.03, -75.23 0.06, -74.65 65.08 80
9 04/01/2021 02:57:12 -0.03, -75.25 0.74, -71.71 402.94 80
10 04/01/2021 15:18:27 0.03, -75.27 0.38, -76.86 181.31 80
